Regional Weather Roundup
Issued by NWS

Home | Current Version | Previous Version | Graphics & Text | Print | Product List | Glossary On
Versions: 1 2 3 4 5 6 7 8 9 10 11 12 13 14 15 16 17 18 19 20 21 22 23 24 25 26 27 28 29 30 31 32 33 34 35 36 37 38 39 40 41 42 43 44 45 46 47 48 49 50
000
ASUS43 KMKX 280421
RWRWI

WISCONSIN REGIONAL WEATHER ROUNDUP
NATIONAL WEATHER SERVICE MILWAUKEE/SULLIVAN WI
1000 PM CST THU NOV 27 2014

NOTE: "FAIR" INDICATES FEW OR NO CLOUDS BELOW 12,000 FEET WITH NO
SIGNIFICANT WEATHER AND/OR OBSTRUCTIONS TO VISIBILITY.

WIZ001-002-006>008-014>016-023>028-280500-
NORTHWEST WISCONSIN

CITY           SKY/WX    TMP DP  RH WIND       PRES   REMARKS
SUPERIOR ARPT  PTCLDY     5  -3  71 SW3       30.33R
ASHLAND        PTCLDY    -2  -6  83 CALM      30.32F
HAYWARD        PTCLDY    -2  -7  79 CALM      30.29R
SIREN          MOCLDY     6  -2  67 S3        30.30R
CUMBERLAND     MOCLDY     7  -2  66 S6        30.28R WCI  -3
RICE LAKE      MOCLDY     5  -2  74 SE5       30.31S WCI  -4
CHETEK         MOCLDY     4  -2  77 CALM      30.31S
LADYSMITH      FAIR       1  -3  83 CALM      30.30F
EAU CLAIRE     MOCLDY     7  -1  70 SE3       30.32F
MENOMONIE      CLOUDY     9   0  65 SE5       30.33S WCI   1
NEW RICHMOND   MOCLDY     8   1  70 S5        30.31S WCI   0
OSCEOLA        CLOUDY     9   1  69 S5        30.34S WCI   1
$$

WIZ003>005-009-010-017-018-280500-
NORTH CENTRAL WISCONSIN

CITY           SKY/WX    TMP DP  RH WIND       PRES   REMARKS
MANITOWISH WTR PTCLDY   -12 -17  81 CALM      30.24F
ARBOR VITAE    PTCLDY    -4  -8  81 CALM      30.24F
WOODRUFF       PTCLDY    -4  -8  81 CALM      30.24F
RHINELANDER    PTCLDY    -3  -7  82 CALM      30.25F
EAGLE RIVER    PTCLDY    -6 -11  79 CALM      30.24F
LAND O LAKES   PTCLDY   -13 -18  78 CALM      30.25S
PHILLIPS       MOCLDY    -7 -10  84 CALM      30.26S
TOMAHAWK       PTCLDY   -10 -15  81 CALM      30.27F
MEDFORD        PTCLDY    -3  -6  85 CALM      30.26F
MERRILL        PTCLDY    -4  -8  84 CALM      30.28F
$$

WIZ029-030-035-036-043>047-280500-
CENTRAL WISCONSIN

CITY           SKY/WX    TMP DP  RH WIND       PRES   REMARKS
WAUSAU         MOCLDY     1  -2  87 CALM      30.29F
MOSINEE        MOCLDY     1   0  92 CALM      30.31S
MARSHFIELD     PTCLDY     1  -4  79 CALM      30.30F
STEVENS POINT  MOCLDY    -7 -10  84 CALM      30.33S
WAUPACA        PTCLDY     2  -3  82 CALM      30.36S
WAUTOMA        PTCLDY    -6 -11  79 CALM      30.37S
WISC RAPIDS    PTCLDY     0  -5  79 CALM      30.35F
CAMP DOUGLAS   CLOUDY     6   5  95 SE2       30.35F
$$

WIZ011>013-019>022-031-037>040-048>050-280500-
NORTHEAST WISCONSIN

CITY           SKY/WX    TMP DP  RH WIND       PRES   REMARKS
ANTIGO         PTCLDY   -12 -16  84 CALM      30.27F
SHAWANO        MOCLDY     5   1  83 CALM      30.35S
OCONTO         PTCLDY    -2  -5  87 CALM      30.36S
STURGEON BAY   PTCLDY     7  -2  66 CALM      30.33S
GREEN BAY      PTCLDY     6   2  83 VRB3      30.35F
MANITOWOC      PTCLDY     6   2  83 W3        30.36F
APPLETON       CLEAR      3   0  85 W8        30.34F WCI -10
CLINTONVILLE   PTCLDY     1  -2  85 CALM      30.35F
OSHKOSH        PTCLDY     5  -1  76 MISG      30.35F
$$

WIZ032>034-041-042-053>061-280500-
SOUTHWEST WISCONSIN

CITY           SKY/WX    TMP DP  RH WIND       PRES   REMARKS
LA CROSSE      CLOUDY    12   3  67 S5        30.36F WCI   4
SPARTA         MOCLDY     7   3  85 CALM      30.36F
VIROQUA        MOCLDY     9   1  72 SE6       30.30F WCI  -1
BOSCOBEL       PTCLDY    11   5  77 CALM      30.37F
PRAIRIE DU CHI MOCLDY    12   2  62 E3        30.35F
PLATTEVILLE    PTCLDY    11   2  66 CALM      30.34F
$$

WIZ056-057-062-063-064-067-068-280500-
SOUTH CENTRAL WISCONSIN

CITY           SKY/WX    TMP DP  RH WIND       PRES   REMARKS
REEDSBURG      PTCLDY     7   3  84 CALM      30.35F
BARABOO/DELLS  PTCLDY     7   4  89 CALM      30.36S
LONE ROCK      PTCLDY    12   3  67 E3        30.37F
MINERAL POINT  PTCLDY    12   5  73 CALM      30.32F
MADISON        CLOUDY    10   5  80 CALM      30.38R
MIDDLETON      PTCLDY    11   6  81 CALM      30.37F
WATERTOWN      PTCLDY     6   4  90 CALM      30.37S
MONROE         PTCLDY    12   7  79 CALM      30.35F
JANESVILLE     PTCLDY    10   9  92 CALM      30.39S
$$

WIZ051-052-058>065-066-070>072-280500-
SOUTHEAST WISCONSIN

CITY           SKY/WX    TMP DP  RH WIND       PRES   REMARKS
MILWAUKEE      PTCLDY    15   7  70 W5        30.38F WCI   8
WAUKESHA       PTCLDY     9   5  85 W3        30.37F
MILWAUKEE/TIMM PTCLDY    12   7  79 CALM      30.38F
RACINE         PTCLDY    12   6  77 W5        30.40S WCI   4
BURLINGTON     PTCLDY     3   1  91 SW5       30.38S WCI  -6
KENOSHA        PTCLDY     9   6  88 CALM      30.39R
FOND DU LAC    MOCLDY     1  -5  75 SE6       30.36F WCI -10
SHEBOYGAN      PTCLDY     4  -1  80 W3        30.36F
WEST BEND      MOCLDY     7   3  85 CALM      30.35F
JUNEAU         PTCLDY     2   0  89 SW3       30.37S
$$

LSZ147-162-280500-
LAKE SUPERIOR

STATION/POSITION TIME  TEMP    WIND        PRES    WAVE
                       AIR SEA DIR/SP/G            HT/PER
                 (UTC) (F)     (DEG/KT/KT) (MB)    (FT/S)
DEVILS ISLAND    0400   13     230/  9/ 13 1027.5F
PORT WING        0300    4     140/  2/  3 1027.1
SAXON HARBOR     0300   -1     200/  5/ 29 1027.4F
$$

LMZ867-665-643>646-280500-
LAKE MICHIGAN

STATION/POSITION TIME  TEMP    WIND        PRES    WAVE
                       AIR SEA DIR/SP/G            HT/PER
                 (UTC) (F)     (DEG/KT/KT) (MB)    (FT/S)
CHAMBERS ISLAND  0300   15     310/  8/ 12 1027.8F
N MID LAKE BUOY  0350   19 42  310/ 10/ 14 1027.9F   2/ 4
NORTHPORT PIER   0312   17     330/ 11/ 15 1027.8S
SISTER BAY       0328          320/ 15/ 18   N/A
KEWAUNEE LAKESHO 0400    7     300/  5/  6 1026.6F
SHEBOYGAN LAKESH 0400   12 34  280/  9/ 10 1029.6F
PORT WASHINGTON  0300   13     280/  5/  6 1029.8S
MILWAUKEE LAKESH 0400   15     310/  5/  6   N/A
S MID LAKE BUOY  0350   23 42  300/  8/ 12 1029.6R   4/ 6
KENOSHA   LAKESH 0400   15     310/  5/  7 1028.8F
$$

TC  - TEMPERATURE IN CELSIUS
VSB - VISIBILITY IN STATUTE MILES
WCI - WIND CHILL INDEX
HX  - HEAT INDEX



USA.gov is the U.S. government's official web portal to all federal, state and local government web resources and services.